This is the latest recevied weather packets stored in our database for station/object EA4GRN-10. If no packets are shown the sender has not sent any weather packets the latest 1 day(s).
| Time | Temp. | Humidity | Pressure | Rain* | Wind** | Luminosity | Snow |
|---|---|---|---|---|---|---|---|
| 1778103752 | 25.56° C | 47% | 1023.5 hPa | - | - | - | - |
| 1778100155 | 25.56° C | 47% | 1023.5 hPa | - | - | - | - |
| 1778099255 | 25.56° C | 47% | 1023.3 hPa | - | - | - | - |
| 1778094754 | 25.56° C | 41% | 1023 hPa | - | - | - | - |
| 1778090253 | 25.56° C | 45% | 1022.8 hPa | - | - | - | - |
| 1778089353 | 25.56° C | 44% | 1023 hPa | - | - | - | - |
| 1778085752 | 25.56° C | 44% | 1023.2 hPa | - | - | - | - |
| 1778084852 | 25.56° C | 44% | 1023.3 hPa | - | - | - | - |
| 1778083952 | 25.56° C | 44% | 1023.2 hPa | - | - | - | - |
| 1778081256 | 25.56° C | 45% | 1023.5 hPa | - | - | - | - |
| 1778076755 | 25.56° C | 45% | 1024.4 hPa | - | - | - | - |
| 1778072253 | 25.56° C | 47% | 1025.1 hPa | - | - | - | - |
| 1778071353 | 25° C | 47% | 1025.2 hPa | - | - | - | - |
| 1778070453 | 25° C | 47% | 1025.4 hPa | - | - | - | - |
| 1778067822 | 25.56° C | 47% | 1025.8 hPa | - | - | - | - |
| 1778065952 | 25° C | 47% | 1026 hPa | - | - | - | - |
| 1778065052 | 25° C | 48% | 1026.1 hPa | - | - | - | - |
| 1778060550 | 25° C | 48% | 1026.6 hPa | - | - | - | - |
| 1778058754 | 24.44° C | 49% | 1026.5 hPa | - | - | - | - |
| 1778057854 | 24.44° C | 50% | 1026.6 hPa | - | - | - | - |
| 1778056954 | 24.44° C | 49% | 1026.8 hPa | - | - | - | - |
| 1778056054 | 24.44° C | 50% | 1026.7 hPa | - | - | - | - |
| 1778053353 | 24.44° C | 49% | 1026.8 hPa | - | - | - | - |
| 1778052453 | 24.44° C | 48% | 1026.8 hPa | - | - | - | - |
| 1778051553 | 23.89° C | 47% | 1026.7 hPa | - | - | - | - |
* Rain since midnight (hover to see other rain measurements)
** Current wind speed in m/s (hover to see current wind gust speed)